Hourly Data Report for February 20, 2004

TORONTO CITY
ONTARIO

43°40'00.000" N
79°24'00.000" W
112.50 m
6158355
71508
XTO

Download Data

Hourly Data (February 2004)
Hourly Data Report for February 20, 2004
TIME
LST
Temp Definition
°C
Dew Point Definition
°C
Rel Hum Definition
%
Precip. Amount Definition
mm

Wind Dir Definition
10's deg

Wind Spd Definition
km/h
Visibility Definition
km
Stn Press Definition
kPa
Hmdx Definition


Wind Chill Definition


Weather Definition


00:00 1.7 -0.8 83   LegendMM LegendMM LegendMM 100.13     LegendNANA
01:00 1.6 -0.1 88   LegendMM LegendMM LegendMM 100.11     LegendNANA
02:00 1.6 -0.7 85   LegendMM LegendMM LegendMM 100.09     LegendNANA
03:00 1.6 -0.9 83   LegendMM LegendMM LegendMM 100.05     LegendNANA
04:00 1.6 -0.9 83   LegendMM LegendMM LegendMM 100.01     LegendNANA
05:00 1.5 -0.5 87   LegendMM LegendMM LegendMM 99.98     LegendNANA
06:00 1.6 -0.5 86   LegendMM LegendMM LegendMM 99.90     LegendNANA
07:00 0.7 -0.3 93   LegendMM LegendMM LegendMM 99.78     LegendNANA
08:00 0.7 -0.5 92   LegendMM LegendMM LegendMM 99.76     LegendNANA
09:00 0.8 -0.1 94   LegendMM LegendMM LegendMM 99.65     LegendNANA
10:00 1.1 0.3 94   LegendMM LegendMM LegendMM 99.48     LegendNANA
11:00 1.2 0.4 94   LegendMM LegendMM LegendMM 99.31     LegendNANA
12:00 1.3 0.4 94   LegendMM LegendMM LegendMM 99.18     LegendNANA
13:00 1.4 0.5 94   LegendMM LegendMM LegendMM 98.99     LegendNANA
14:00 1.7 0.2 90   LegendMM LegendMM LegendMM 98.91     LegendNANA
15:00 1.6 0.1 90   LegendMM LegendMM LegendMM 98.80     LegendNANA
16:00 1.6 0.1 90   LegendMM LegendMM LegendMM 98.69     LegendNANA
17:00 1.4 0.1 91   LegendMM LegendMM LegendMM 98.59     LegendNANA
18:00 1.5 0.1 90   LegendMM LegendMM LegendMM 98.52     LegendNANA
19:00 1.4 0.3 92   LegendMM LegendMM LegendMM 98.49     LegendNANA
20:00 1.4 0.6 94   LegendMM LegendMM LegendMM 98.35     LegendNANA
21:00 1.5 0.8 95   LegendMM LegendMM LegendMM 98.20     LegendNANA
22:00 1.9 1.0 94   LegendMM LegendMM LegendMM 98.09     LegendNANA
23:00 2.0 1.3 95   LegendMM LegendMM LegendMM 97.96     LegendNANA

Notes on Data Quality.

Legend

  • E = Estimated
  • M = Missing
  • NA = Not Available*
  • [empty] = Indicates an unobserved value
Date modified: